Regional Weather Roundup
Issued by NWS Upton, NY

Current Version | Previous Version | Text Only | Print | Product List | Glossary Off
Versions: 1 2 3 4 5 6 7 8 9 10 11 12 13 14 15 16 17 18 19 20 21 22 23 24 25 26 27 28 29 30 31 32 33 34 35 36 37 38 39 40 41 42 43 44 45 46 47 48 49 50
000 ASUS41 KOKX 220609 RWROKX REGIONAL WEATHER ROUNDUP NATIONAL WEATHER SERVICE NEW YORK NY 200 AM EDT TUE AUG 22 2017 NOTE: "FAIR" INDICATES FEW OR NO CLOUDS BELOW 12,000 FEET WITH NO SIGNIFICANT WEATHER AND/OR OBSTRUCTIONS TO VISIBILITY. NYZ071-072-176-178-NJZ106-104-220700- NEW YORK CITY METRO AREA CITY SKY/WX TMP DP RH WIND PRES REMARKS Central Park CLEAR 76 70 82 VRB5 30.10F Bronx Bot Gard N/A 77 68 73 SW10 30.07F LaGuardia APRT PTCLDY 78 71 79 SW9 30.07F Kennedy INTL PTCLDY 74 73 97 SW7 30.09F Breezy Point N/A 73 N/A N/A S5 N/A Newark/Liberty PTCLDY 75 71 87 SW9 30.06F Teterboro CLEAR 76 71 85 SW5 30.06F $$ NYZ177-179-078>081-220700- LONG ISLAND NEW YORK CITY SKY/WX TMP DP RH WIND PRES REMARKS Jones Beach N/A 73 N/A N/A W6 N/A Matinecock PT N/A 75 N/A N/A SW8 N/A Farmingdale CLEAR 75 71 87 SW8 30.08F MacArthur/ISP PTCLDY 75 73 93 SW9 30.08F Shirley PTCLDY 76 74 93 SW7 30.09F Mt Sinai Harb N/A N/A N/A N/A S5 N/A Westhampton PTCLDY 73 71 93 SW5 30.10F East Hampton FAIR 72 70 95 SW5 30.09S Montauk N/A 74 72 93 SW8 30.10F $$ NYZ052-065-067-220700- HUDSON VALLEY CITY SKY/WX TMP DP RH WIND PRES REMARKS White Plains CLEAR 74 69 85 S3 30.08F Larchmont Harb N/A 73 N/A N/A S7 N/A Croton On Huds N/A 77 N/A N/A S5 N/A Newburgh CLEAR 72 70 94 CALM 30.09S Montgomery PTCLDY 69 68 96 CALM 30.06F FOG Poughkeepsie CLEAR 69 67 93 CALM 30.05F Albany PTCLDY 73 68 84 S6 30.04S $$ NJZ001-105-106-008-010-013-015-019>022-104-220700- NEW JERSEY CITY SKY/WX TMP DP RH WIND PRES REMARKS Newark/Liberty PTCLDY 75 71 87 SW9 30.06F Teterboro CLEAR 76 71 85 SW5 30.06F Caldwell CLEAR 73 72 96 SW3 30.07F Somerville PTCLDY 69 69 100 CALM 30.06F FOG Linden FAIR 75 69 81 CALM 30.09S Perth Amboy N/A 73 N/A N/A W5 N/A Sussex CLEAR 68 68 100 CALM 30.08F FOG Andover N/A 69 68 96 CALM 30.09F Trenton PTCLDY 74 71 91 S3 30.07F Millville CLEAR 78 75 90 SW3 30.10F Atlantic City PTCLDY 75 73 93 S3 30.10F Wrightstown PTCLDY 72 71 95 S6 30.06F Toms River CLEAR 73 71 93 SW8 30.10F Belmar CLEAR 73 71 93 S7 30.10F $$ PAZ047>061-062-071-220700- EASTERN PENNSYLVANIA CITY SKY/WX TMP DP RH WIND PRES REMARKS Philadelphia CLOUDY 77 73 87 S7 30.09F Allentown CLEAR 70 67 90 SW3 30.09F FOG Scranton CLEAR 67 66 97 E3 30.09F $$ CTZ002-004>006-009-010-012-RIZ004-006-007-MAZ004-011-015-220700- SOUTHERN NEW ENGLAND IN CT CITY SKY/WX TMP DP RH WIND PRES REMARKS Bradley INTL PTCLDY 71 67 87 S6 30.07S Hartford CLEAR 73 69 87 S5 30.06F Danbury CLOUDY 74 69 85 W3 30.09F Wtrbury/Oxford PTCLDY 70 69 97 S5 30.10F Norwalk Harbor N/A 73 N/A N/A S10 N/A Bridgeport PTCLDY 75 71 87 SW5 30.07F Meriden CLEAR 68 67 96 CALM 30.07F New Haven PTCLDY 74 71 91 CALM 30.08F Chester FAIR 72 72 100 SW5 30.09F Groton CLEAR 72 70 93 SW3 30.08F Wilimantic CLEAR 67 66 97 CALM 30.09S IN RI CITY SKY/WX TMP DP RH WIND PRES REMARKS Providence CLEAR 72 68 87 S5 30.08S Block Island PTCLDY 70 69 97 SW13 30.09F Westerly CLEAR 71 68 90 CALM 30.09F IN MA CITY SKY/WX TMP DP RH WIND PRES REMARKS Boston CLEAR 74 64 71 SW10 30.04F Worcester CLEAR 67 63 87 SW10 30.08F Westfield CLEAR 69 66 90 S5 30.06F Provincetown CLEAR 69 65 86 SW7 30.07F Nantucket CLEAR 68 68 100 SW8 30.10F $$ ANZ330-335-338-340-345-350-353-355-220700- COASTAL MARINE OBSERVATIONS STATION/POSITION TIME SKY/WX TEMP WIND PRES VSBY WAVE AIR SEA DIR/SP/G HT/PER (UTC) (F) (DEG/KT/KT) (MB) (MI) (FT/S) NY HARB ENTRANCE 0450 76 76 210/ 14/ 16 1018.6 2/ 5 GREAT SOUTH BAY 0530 76 79 240/ 12/ 16 N/A 23 SSW MONTAUK P 0550 74 73 1019.3 3/ 4 15 E BARNEGAT LI 0530 77 N/A 3/ 4 HUDSON CANYON 0550 76 76 210/ 10/ 12 1019.2 2/ 8 KINGS POINT 0542 75 73 190/ 9/ 11 1018.2 EXECUTION ROCKS NOT AVBL WESTERN LI SOUND NOT AVBL CENTRAL LI SOUND NOT AVBL EASTERN LI SOUND NOT AVBL ROBBINS REEF 0548 160/ 4/ 4 1019.0 $$ >>>>>>>>>>>>>>>>>>>>>>>>>>>> KEY <<<<<<<<<<<<<<<<<<<<<<<<<<< > < > SKY/WX - Sky Condition/Present Weather < > TMP - Temperature in Fahrenheit < > DP - Dew Point in Fahrenheit < > RH - Relative Humidity in Percent < > WIND - Direction (from) and Speed in MPH < > PRES - Mean Sea Level Pressure (inches of Hg) < > WCI - Wind Chill Index < > VSB - VISIBILITY IN MILES < > HX - HEAT INDEX < > TC - TEMPERATURE IN CELSIUS < > VRB - VARIABLE WIND DIRECTION < > < >>>>>>>>>>>>>>>>>>>>>>>>>>>> KEY <<<<<<<<<<<<<<<<<<<<<<<<<<<

USA.gov is the U.S. government's official web portal to all federal, state and local government web resources and services.